SNEZKA Weather Reports


time (UTC)temp
F
wind
direction
speed
knots
gust
knots
rain 1hr
in
rain 24hr
in
rain mn
in
humidity
%
barometer
mb
20260903182011 48 220 34.8 51.3 0.00 0.00 0.00 93
20260903172028 48 200 20.9 42.6 0.00 0.00 0.00 87
20260903162319 48 200 15.6 33.0 0.00 0.00 0.00 87
20260903152010 48 230 22.6 39.1 0.00 0.00 0.00 87
20260903142011 48 200 15.6 25.2 0.00 0.00 0.00 81
20260903132204 46 220 12.2 20.9 0.00 0.00 0.00 87
20260903122010 46 230 12.2 0.0 0.00 0.00 0.00 93
20260903111957 46 230 19.1 0.0 0.00 0.00 0.00 93
20260903102359 46 240 12.2 25.2 0.00 0.00 0.00 87
20260903091958 46 250 17.4 26.9 0.00 0.00 0.00 81
20260903081958 46 250 20.9 0.0 0.00 0.00 0.00 87
20260903072159 45 260 19.1 0.0 0.00 0.00 0.00 87
20260903061957 45 240 13.9 0.0 0.00 0.00 0.00 81
20260903051958 46 250 13.9 0.0 0.00 0.00 0.00 70
20260903042359 45 270 19.1 0.0 0.00 0.00 0.00 93
20260903031957 46 260 19.1 0.0 0.00 0.00 0.00 75
20260903021957 46 240 19.1 0.0 0.00 0.00 0.00 99
20260903012158 46 270 15.6 0.0 0.00 0.00 0.00 99
20260903001959 46 260 19.1 0.0 0.00 0.00 0.00 93
20260902231957 48 240 13.9 0.0 0.00 0.00 0.00 87
20260902222359 48 210 15.6 0.0 0.00 0.00 0.00 87
20260902211959 48 170 13.9 0.0 0.00 0.00 0.00 81
20260902201959 46 210 7.8 0.0 0.00 0.00 0.00 99
20260902192200 48 210 10.4 0.0 0.00 0.00 0.00 87